Vertical_Velocity
-2 -1 1 -1 -1 1 -1 1 -1 -2 -1 -2 -1 -1 -0 -1 1 1 2 2 0 -2 -2 -0 1 -0 -1 -0 -3 -0 -1 2 -0 -2 -1 0 -1 -1 -1 -1 -0 -0 -0
1 -1 -0 -0 1 1 1 -2 -2 -1 -0 -2 -1 -2 -2 -0 -1 -2 -1 -1 -1 -0 0 -0 -1 0 -1 -1 -1 1 -1 1 -2 -3 -2 -1 0 -1 -2 -2 -1 -1 1
0 1 -0 -1 -1 -1 -2 1 -1 -2 -1 -1 0 -3 -1 0 -1 -1 -1 -1 1 1 0 1 -1 1 -2 -3 -0 -0 -0 -0 -1 -0 -2 -2 -0 -1 -2 -0 -1 -1 -1
-1 0 1 2 4 4 1 -1 -1 1 1 -2 -0 -2 -3 -2 1 -1 -0 -2 -0 -1 2 0 -1 -0 -2 -1 -0 -1 1 -0 -2 -0 -1 -2 -0 -2 -1 -1 1 -0 -1
1 1 -1 -0 2 -0 -0 2 1 1 2 1 1 -1 -3 -2 -2 -1 -3 -3 -1 -1 1 -0 -1 0 -1 -1 -1 -2 -0 -0 -1 -2 -1 -0 0 -1 -2 -0 -0 -1 -1
1 5 2 -3 3 -2 -1 1 -0 -0 0 -1 1 3 0 -1 -1 -0 -0 -1 -3 1 -1 -2 -1 -1 -2 -1 -0 0 -0 -1 -1 -1 -0 -1 -0 0 -1 -1 -1 -1 1
-3 -1 -1 -1 2 1 1 1 0 0 -1 -2 -1 -2 -1 3 2 -1 -2 -0 -1 0 -1 0 -1 -1 -1 -0 -0 -1 0 -1 -0 -1 -0 -2 -1 -0 -2 -0 1 -1 -2
1 -3 -2 -2 0 0 -1 -1 -1 -1 -1 -2 -1 0 -0 -2 -2 -1 2 0 -1 -1 2 1 -0 -0 -1 -2 -1 -2 -1 -0 -2 -1 -1 -1 -2 -1 -1 -2 -1 -1 -1
-1 -3 -1 -3 -1 -3 3 -4 -2 -1 -0 -1 -1 -1 -1 -1 -2 -1 -1 -2 -0 -1 -0 -1 -1 -2 -1 -2 -1 -2 -2 -1 -1 -1 -1 -1 -2 -3 -2 -1 -0 -1 -1
2 1 -1 -3 -4 -2 -2 -3 -2 -2 -3 -1 -1 -1 -1 -1 -1 -1 -1 -1 0 -0 1 -0 -1 -0 0 -1 -2 -0 -1 -1 -2 -2 -1 -1 -0 -2 -1 -4 -2 0 -1
-0 1 1 -0 1 -0 -2 -1 -2 -4 -4 -3 -1 -1 -2 -0 -0 -1 -2 -2 -0 -3 0 -1 0 -1 0 -1 -2 -1 -0 -2 -1 -2 -2 -0 -2 -2 -1 -3 -3 -1 -1
-3 -4 -1 1 1 2 2 2 -0 -1 0 -1 -1 -0 1 0 -0 -0 -0 0 -2 -1 -1 1 1 -0 -1 0 -1 -2 -0 -0 -2 -2 -1 -1 -0 -1 -2 -2 -4 -3 -0
-1 1 0 -0 0 -1 1 3 0 -2 -1 -1 -1 -1 -1 -1 -0 1 2 -1 -0 -0 -2 -1 0 -1 1 -1 -1 -0 -2 -1 -1 -1 -1 -2 -2 -2 -3 -2 -2 -1 -1
-1 -2 -2 -1 -0 2 -1 -1 0 1 -0 -1 -2 -2 1 1 1 3 2 0 -1 -0 -1 1 3 2 3 -1 0 -1 -0 -2 -1 -1 -2 -2 -2 -1 -4 -3 -3 -3 -3
-2 -2 -1 -2 -2 -2 0 3 -0 0 1 -1 1 1 -1 -1 -2 -2 -1 -0 -1 1 -1 -0 1 2 0 1 -1 1 -1 -1 -2 -1 1 -1 -2 -1 -1 -1 -1 -2 -3
0 -1 -2 -2 -2 -3 -3 -1 0 4 2 -1 -0 -1 -0 2 1 -0 0 -2 -2 -3 -4 -2 -1 1 2 -1 1 0 3 2 -3 -1 -0 0 -2 -0 -2 0 2 0 -2
-3 -2 -0 1 -1 -1 0 -1 -2 -2 -1 1 2 -2 -3 -2 -2 1 1 -1 2 -2 -0 -4 -2 0 2 -2 1 0 1 4 3 0 1 -2 -3 -1 1 -2 3 0 1
-1 -0 -1 -2 -1 -4 -3 -2 -1 -1 -1 -1 -1 1 3 1 0 -0 -1 1 2 2 2 -1 -2 -0 -2 0 5 2 0 1 5 10 -1 -0 -3 -1 -1 -1 -1 1 -0
0 0 1 2 1 1 -0 -1 -1 -1 -1 -1 0 1 1 0 -0 3 4 2 0 1 -1 2 1 -3 0 -2 -0 4 3 -2 4 -1 6 4 0 -0 0 0 -2 0 1
3 3 2 2 1 2 1 -2 -2 -2 -1 2 1 -2 -4 -1 3 -0 -4 -2 2 4 5 -3 1 -2 2 1 -5 -1 2 -5 -1 1 7 5 1 0 1 1 -1 1 1
-2 -1 -1 -1 -1 1 1 0 -3 -5 -5 -7 -5 -5 -3 -5 -6 -5 2 7 3 -2 -3 0 4 -0 -3 -1 0 -4 1 18 -3 -1 5 8 8 7 1 -0 -2 -0 1
-1 -1 0 1 0 -0 1 2 5 7 3 1 1 -2 -3 -5 -2 -1 1 1 -1 -1 -3 -5 -4 2 3 -3 -9 -3 7 3 4 54 1 4 13 4 -0 1 -3 -2 -1
-2 -2 -2 -2 -2 -2 -1 -2 -4 -0 -2 1 -3 -2 -5 -4 -5 -6 -8 -9 -6 -6 4 1 -6 -10 0 7 -6 -13 -4 11 -11 6 3 13 6 1 3 3 -3 -4 -1
-3 -5 -4 -3 0 3 3 2 0 0 6 2 8 7 4 -3 -4 -5 -3 -4 0 2 0 1 6 -1 -6 4 5 -7 -15 4 3 -1 8 10 12 -2 1 2 -0 1 0
-4 -5 -5 -3 -0 -2 -3 -2 -0 -4 -4 -4 -3 -2 -0 4 -1 -7 -9 -8 -7 -4 1 -6 -0 -1 3 -1 -1 9 -1 -12 2 -2 -4 5 -4 7 5 -0 7 3 -1
-6 -3 -2 -2 -1 -3 -6 -7 -4 -5 -3 -4 -4 -4 -5 -4 0 1 -2 -3 -5 -6 -3 -4 -3 -2 3 2 3 -4 1 -1 -5 -15 -2 -2 -6 6 5 -0 -1 -2 18
Height
5874 5874 5873 5872 5871 5871 5870 5869 5866 5864 5863 5862 5861 5861 5861 5861 5860 5860 5860 5859 5858 5858 5857 5857 5856 5855 5854 5853 5851 5849 5848 5846 5844 5842 5840 5837 5835 5832 5829 5826 5823 5820 5818
5873 5872 5871 5871 5870 5869 5868 5868 5866 5864 5862 5862 5861 5860 5859 5859 5859 5858 5858 5858 5857 5857 5856 5855 5854 5853 5851 5850 5848 5846 5845 5843 5841 5839 5837 5835 5832 5830 5827 5824 5821 5818 5815
5872 5871 5870 5870 5869 5868 5867 5866 5865 5864 5862 5861 5860 5859 5858 5857 5856 5856 5856 5856 5855 5855 5854 5853 5852 5850 5849 5847 5845 5843 5841 5840 5838 5836 5834 5831 5830 5827 5825 5822 5819 5815 5812
5870 5869 5869 5868 5868 5867 5866 5865 5864 5863 5862 5860 5859 5858 5857 5855 5854 5853 5852 5852 5851 5851 5850 5850 5848 5847 5845 5843 5841 5840 5838 5836 5834 5832 5830 5828 5826 5825 5822 5819 5816 5813 5809
5868 5866 5866 5865 5865 5864 5864 5863 5863 5862 5862 5860 5858 5857 5855 5853 5852 5851 5850 5848 5847 5846 5846 5845 5844 5842 5841 5839 5837 5835 5833 5832 5830 5828 5827 5825 5823 5822 5819 5816 5813 5810 5807
5866 5865 5863 5862 5861 5860 5859 5859 5859 5859 5858 5857 5857 5856 5855 5852 5850 5849 5847 5845 5844 5842 5842 5840 5839 5837 5836 5834 5833 5831 5829 5827 5825 5824 5823 5821 5820 5818 5815 5813 5811 5807 5804
5862 5861 5860 5859 5857 5856 5855 5855 5855 5855 5855 5853 5852 5851 5850 5850 5849 5847 5844 5843 5841 5840 5838 5836 5835 5833 5832 5830 5829 5827 5826 5824 5822 5820 5819 5817 5816 5814 5812 5810 5807 5804 5802
5858 5856 5854 5854 5853 5852 5850 5850 5850 5850 5849 5848 5847 5846 5845 5844 5843 5842 5841 5839 5837 5836 5834 5833 5831 5829 5828 5825 5824 5823 5822 5820 5818 5816 5814 5813 5811 5810 5809 5806 5804 5802 5799
5854 5852 5850 5849 5848 5847 5846 5846 5845 5844 5843 5843 5842 5841 5840 5839 5838 5837 5835 5833 5832 5831 5830 5828 5827 5825 5823 5821 5819 5817 5817 5816 5814 5812 5810 5809 5807 5806 5805 5803 5800 5798 5797
5849 5847 5845 5844 5842 5842 5840 5840 5840 5839 5838 5837 5836 5836 5835 5833 5832 5831 5829 5828 5826 5824 5823 5823 5822 5819 5817 5815 5814 5813 5811 5811 5810 5809 5807 5806 5803 5801 5801 5799 5797 5795 5793
5844 5842 5840 5838 5837 5835 5834 5833 5832 5832 5831 5831 5830 5830 5828 5827 5826 5825 5823 5821 5819 5818 5816 5816 5815 5814 5812 5811 5809 5808 5807 5805 5805 5804 5803 5802 5801 5799 5796 5796 5794 5793 5791
5839 5837 5835 5833 5831 5830 5828 5827 5825 5824 5824 5824 5823 5823 5821 5820 5819 5818 5816 5814 5812 5811 5809 5808 5808 5808 5808 5807 5805 5802 5801 5800 5799 5799 5798 5798 5796 5795 5794 5792 5791 5789 5788
5833 5832 5830 5828 5826 5825 5823 5822 5820 5818 5817 5816 5816 5815 5814 5813 5811 5810 5809 5807 5805 5803 5802 5800 5800 5799 5799 5800 5800 5797 5795 5795 5794 5793 5792 5792 5792 5790 5790 5789 5787 5785 5784
5828 5827 5824 5822 5820 5818 5817 5815 5814 5813 5810 5808 5807 5806 5805 5804 5803 5801 5800 5799 5797 5796 5795 5793 5792 5791 5790 5790 5793 5792 5789 5788 5788 5787 5786 5786 5786 5785 5785 5784 5782 5781 5780
5822 5820 5818 5817 5815 5813 5810 5808 5807 5805 5804 5801 5799 5798 5796 5795 5794 5792 5791 5790 5789 5788 5787 5787 5785 5785 5783 5781 5783 5784 5783 5781 5780 5781 5780 5780 5780 5780 5780 5778 5778 5777 5776
5815 5813 5811 5809 5807 5806 5805 5802 5799 5797 5796 5795 5792 5790 5788 5785 5784 5782 5780 5780 5780 5779 5779 5778 5777 5776 5776 5773 5773 5774 5776 5775 5774 5773 5773 5772 5774 5774 5774 5774 5773 5773 5772
5810 5807 5804 5802 5800 5798 5796 5794 5792 5790 5787 5785 5782 5780 5778 5775 5773 5771 5769 5768 5768 5768 5766 5766 5766 5765 5765 5764 5765 5766 5766 5767 5767 5766 5764 5764 5767 5767 5768 5768 5767 5767 5768
5803 5800 5798 5796 5794 5791 5788 5785 5782 5780 5778 5775 5772 5768 5766 5764 5762 5759 5757 5756 5755 5753 5754 5753 5753 5754 5754 5753 5752 5755 5756 5756 5757 5757 5755 5755 5758 5759 5760 5761 5761 5761 5761
5795 5792 5790 5787 5784 5780 5777 5774 5771 5769 5766 5763 5759 5756 5753 5750 5748 5747 5745 5744 5743 5742 5740 5739 5739 5739 5740 5741 5740 5740 5743 5745 5745 5745 5746 5747 5747 5749 5751 5753 5754 5754 5755
5787 5784 5781 5778 5774 5770 5766 5763 5759 5756 5753 5749 5746 5742 5739 5735 5733 5732 5731 5730 5730 5729 5728 5725 5724 5724 5723 5723 5724 5727 5728 5731 5732 5732 5735 5735 5737 5739 5741 5742 5745 5747 5748
5778 5774 5772 5769 5765 5760 5756 5752 5747 5741 5737 5733 5729 5726 5723 5721 5718 5715 5714 5713 5712 5710 5711 5711 5711 5709 5708 5706 5707 5709 5715 5716 5719 5716 5720 5725 5724 5730 5732 5734 5734 5737 5739
5766 5762 5759 5755 5752 5749 5745 5741 5736 5730 5726 5721 5716 5711 5707 5703 5699 5697 5694 5693 5691 5692 5691 5690 5692 5693 5693 5689 5689 5691 5694 5698 5701 5691 5701 5705 5712 5714 5717 5721 5723 5724 5728
5755 5751 5747 5743 5738 5733 5729 5724 5719 5715 5710 5705 5700 5696 5691 5687 5683 5679 5675 5671 5669 5668 5668 5668 5667 5671 5674 5674 5670 5670 5674 5675 5678 5682 5681 5691 5695 5699 5704 5707 5709 5711 5714
5742 5738 5734 5729 5723 5718 5713 5708 5704 5700 5695 5689 5684 5678 5672 5666 5661 5657 5652 5648 5645 5643 5642 5642 5643 5645 5646 5652 5652 5652 5652 5656 5658 5662 5667 5672 5675 5683 5689 5693 5695 5697 5701
5729 5725 5720 5714 5708 5702 5697 5693 5689 5684 5678 5672 5666 5661 5655 5649 5642 5637 5632 5629 5625 5620 5617 5617 5617 5619 5621 5623 5627 5632 5632 5634 5636 5640 5648 5658 5662 5667 5672 5677 5680 5682 5685
5716 5710 5705 5700 5694 5689 5685 5679 5674 5668 5662 5656 5650 5644 5638 5632 5626 5619 5612 5606 5600 5596 5593 5590 5592 5593 5596 5598 5600 5606 5610 5611 5615 5616 5622 5637 5643 5646 5653 5657 5663 5666 5670